{"data":{"norad_id":64798,"epoch":"2026-05-24T20:32:40.976448Z","epoch_age_seconds":84117,"freshness":"FRESH","line1":"1 64798U 25150J   26144.85602982  .00002860  00000+0  24733-3 0  9991","line2":"2 64798  70.0003 302.5014 0003000 265.7471  94.3345 14.98336460 48819","mean_motion":14.9833646,"eccentricity":0.0003,"inclination_deg":70.0003,"raan_deg":302.5014,"arg_perigee_deg":265.7471,"mean_anomaly_deg":94.3345,"bstar":0.00024733,"rev_number":4881,"period_min":96.106584765347,"perigee_km":569.95086212488,"apogee_km":574.12096587328,"semimajor_km":6950.1729139991,"source":"CELESTRAK","updated_at":"2026-05-25T13:38:20.564696Z"}}